{"data":{"norad_id":66957,"intl_designator":"2025-287E","name":"HULIANWANG DIGUI-118","alt_names":[],"object_type":"PAYLOAD","status":"ACTIVE","operator":null,"country":"PRC","launch_date":"2025-12-08","launch_site_code":"TAISC","launch_vehicle":null,"mission":null,"orbit_class":"UNKNOWN","rcs_meters":null,"size_class":null,"mass_kg":null,"dimensions":null,"purposes":[],"wikipedia_slug":null,"has_3d_model":false,"image_url":null,"decayed_at":null,"tle_current":{"epoch":"2026-05-24T22:02:21.782688Z","epoch_age_seconds":85600,"freshness":"FRESH","line1":"1 66957U 25287E   26144.91830767  .00000036  00000+0  50463-4 0  9995","line2":"2 66957  86.4905 290.1947 0001542 110.4973 249.6327 13.24411523 22267","mean_motion":13.24411523,"eccentricity":0.0001542,"inclination_deg":86.4905,"raan_deg":290.1947,"arg_perigee_deg":110.4973,"mean_anomaly_deg":249.6327,"bstar":5.0463e-5,"rev_number":2226,"period_min":108.72753483284,"perigee_km":1166.7527991575,"apogee_km":1169.0800020262,"semimajor_km":7546.0534005918,"source":"CELESTRAK","updated_at":"2026-05-25T13:38:06.627539Z"}}}